Home   Weather   Norwich   Past weeks

Flag for United Kingdom Past Weather in Norwich, England, United Kingdom — Yesterday and Last 2 Weeks

Now
34 °F

Passing clouds.


Feels Like: 34 °F
Forecast: 30 / 39 °F
Wind: 2 mph from Southeast

Location: Norwich Weather Centre

Current Time: Jan 17, 2017 at 12:53:23 am

Latest Report: Jan 17, 2017 at 12:20 am


Visibility: N/A

Pressure: 30.51 "Hg

Humidity: 100%

Dew Point: 34 °F

Location of NorwichLocation

Past Weather in Norwich — Graph

°F

Norwich Temperature Yesterday

Maximum temperature yesterday: 45 °F (at 1:20 pm)
Minimum temperature yesterday: 34 °F (at 7:20 pm)
Average temperature yesterday: 38 °F

High & Low Weather Summary for the Past Weeks

 TemperatureHumidityPressure
High50 °F (Jan 9, 11:20 am)100% (Jan 5, 6:20 am)30.63 "Hg (Jan 5, 6:20 am)
Low30 °F (Jan 2, 8:20 pm)54% (Jan 11, 2:20 pm)29.30 "Hg (Jan 12, 7:20 pm)
Average40 °F87%30.12 "Hg
* Reported Jan 1 11:20 pm — Jan 16 11:20 pm, Norwich, Weather by CustomWeather, © 2017

Note: Actual official high and low records may vary slightly from our data, if they occured in-between our weather recording intervals... More about our weather records

Advertising

Norwich Weather History for the Previous 24 Hours

Scroll right to see more
 ConditionsComfort  
Time TempWeatherWind HumidityBarometerVisibility
11:20 pm
Mon, Jan 16
34 °FChilly.1 mph100%30.48 "HgN/A
10:50 pm34 °FChilly.2 mph93%30.48 "HgN/A
10:20 pm34 °FChilly.1 mph93%30.48 "HgN/A
9:50 pm34 °FChilly.1 mph93%30.48 "HgN/A
9:20 pm34 °FClear.No wind93%30.48 "Hg10 mi
8:50 pm34 °FClear.1 mph100%30.48 "Hg10 mi
8:20 pm34 °FClear.2 mph100%30.45 "Hg10 mi
7:50 pm34 °FClear.1 mph93%30.45 "Hg10 mi
7:20 pm34 °FClear.2 mph93%30.42 "Hg10 mi
6:50 pm36 °FClear.No wind93%30.42 "Hg10 mi
6:20 pm36 °FPassing clouds.1 mph87%30.42 "HgN/A
5:50 pm37 °FPassing clouds.No wind87%30.39 "HgN/A
5:20 pm39 °FPassing clouds.No wind81%30.39 "HgN/A
4:50 pm39 °FPassing clouds.2 mph81%30.39 "HgN/A
4:20 pm39 °FPassing clouds.3 mph87%30.39 "HgN/A
3:50 pm41 °FScattered clouds.5 mph81%30.39 "HgN/A
3:20 pm43 °FScattered clouds.6 mph81%30.36 "HgN/A
2:50 pm43 °FScattered clouds.5 mph76%30.36 "HgN/A
2:20 pm41 °FScattered clouds.6 mph81%30.36 "HgN/A
1:50 pm43 °FPassing clouds.3 mph76%30.36 "HgN/A
1:20 pm45 °FPassing clouds.2 mph71%30.36 "HgN/A
12:50 pm43 °FPassing clouds.6 mph81%30.36 "HgN/A
12:20 pm43 °FPassing clouds.5 mph81%30.36 "HgN/A
11:50 am43 °FPassing clouds.3 mph76%30.36 "HgN/A
11:20 am43 °FPassing clouds.5 mph76%30.36 "HgN/A
10:50 am43 °FSunny.2 mph81%30.36 "Hg10 mi
10:20 am41 °FSunny.1 mph87%30.36 "Hg10 mi
9:50 am39 °FSunny.1 mph93%30.36 "Hg10 mi
9:20 am39 °FPassing clouds.1 mph93%30.33 "HgN/A
8:50 am37 °FScattered clouds.2 mph100%30.33 "HgN/A
8:20 am37 °FPartly sunny.3 mph93%30.33 "HgN/A
7:50 am37 °FPassing clouds.2 mph100%30.33 "HgN/A
7:20 am37 °FPassing clouds.1 mph93%30.30 "HgN/A
6:50 am37 °FOvercast.1 mph100%30.30 "HgN/A
6:20 am37 °FOvercast.1 mph100%30.30 "HgN/A
5:50 am39 °FOvercast.1 mph93%30.30 "HgN/A
Weather by CustomWeather, © 2017

See weather overviewHow to use our weather pages